| time (UTC) | temp C | wind direction | speed KPH | gust KPH | rain 1hr cm | rain 24hr cm | rain mn cm | humidity % | barometer mb |
| 20260504081503 | 20 | 209 | 4.8 | 17.7 | 0.00 | 0.00 | 0.00 | 84 | 1014.4 |
| 20260504081003 | 20 | 208 | 4.8 | 12.9 | 0.00 | 0.00 | 0.00 | 84 | 1014.2 |
| 20260504080504 | 20 | 213 | 4.8 | 12.9 | 0.00 | 0.00 | 0.00 | 85 | 1014.2 |
| 20260504060215 | 17 | 211 | 3.2 | 9.7 | 0.00 | 0.00 | 0.00 | 88 | 1014.0 |
| 20260504050503 | 18 | 214 | 3.2 | 9.7 | 0.00 | 0.00 | 0.00 | 90 | 1013.4 |
| 20260504050216 | 18 | 215 | 3.2 | 9.7 | 0.00 | 0.00 | 0.00 | 90 | 1013.3 |
| 20260504045504 | 18 | 209 | 3.2 | 9.7 | 0.00 | 0.00 | 0.00 | 90 | 1013.2 |
| 20260504045004 | 18 | 207 | 3.2 | 9.7 | 0.00 | 0.00 | 0.00 | 90 | 1013.5 |
| 20260504044506 | 18 | 214 | 1.6 | 6.4 | 0.00 | 0.00 | 0.00 | 90 | 1013.2 |
| 20260504044003 | 18 | 221 | 3.2 | 9.7 | 0.00 | 0.00 | 0.00 | 90 | 1013.3 |
| 20260504043504 | 18 | 208 | 3.2 | 9.7 | 0.00 | 0.00 | 0.00 | 90 | 1013.4 |
| 20260504043003 | 18 | 202 | 3.2 | 9.7 | 0.00 | 0.00 | 0.00 | 90 | 1013.7 |
| 20260504042503 | 18 | 210 | 3.2 | 14.5 | 0.00 | 0.00 | 0.00 | 90 | 1013.3 |
| 20260504042215 | 18 | 204 | 4.8 | 14.5 | 0.00 | 0.00 | 0.00 | 90 | 1013.4 |
| 20260504041504 | 18 | 207 | 4.8 | 14.5 | 0.00 | 0.00 | 0.00 | 90 | 1013.3 |
| 20260504041004 | 18 | 211 | 4.8 | 12.9 | 0.00 | 0.00 | 0.00 | 90 | 1013.3 |
| 20260504040504 | 18 | 205 | 3.2 | 12.9 | 0.00 | 0.00 | 0.00 | 90 | 1013.5 |
| 20260504040003 | 18 | 212 | 3.2 | 11.3 | 0.00 | 0.00 | 0.00 | 90 | 1013.3 |
| 20260504035503 | 18 | 223 | 1.6 | 9.7 | 0.00 | 0.00 | 0.00 | 90 | 1013.4 |
| 20260504035004 | 18 | 218 | 1.6 | 6.4 | 0.00 | 0.00 | 0.00 | 90 | 1013.5 |
| 20260504034504 | 18 | 213 | 3.2 | 9.7 | 0.00 | 0.00 | 0.00 | 90 | 1013.2 |
| 20260504034213 | 18 | 213 | 3.2 | 9.7 | 0.00 | 0.00 | 0.00 | 90 | 1013.4 |
| 20260504033503 | 18 | 207 | 3.2 | 11.3 | 0.00 | 0.00 | 0.00 | 90 | 1013.4 |
| 20260504033003 | 18 | 207 | 3.2 | 11.3 | 0.00 | 0.00 | 0.00 | 90 | 1013.4 |
| 20260504032503 | 18 | 205 | 4.8 | 11.3 | 0.00 | 0.00 | 0.00 | 90 | 1013.6 |
| 20260504032003 | 18 | 201 | 4.8 | 11.3 | 0.00 | 0.00 | 0.00 | 90 | 1013.6 |
| 20260504031503 | 18 | 208 | 3.2 | 9.7 | 0.00 | 0.00 | 0.00 | 90 | 1013.6 |
| 20260504031004 | 18 | 215 | 3.2 | 6.4 | 0.00 | 0.00 | 0.00 | 90 | 1013.7 |
| 20260504030503 | 18 | 212 | 3.2 | 9.7 | 0.00 | 0.00 | 0.00 | 90 | 1013.8 |
| 20260504030217 | 18 | 212 | 3.2 | 9.7 | 0.00 | 0.00 | 0.00 | 90 | 1013.8 |
| 20260504025504 | 18 | 211 | 3.2 | 9.7 | 0.00 | 0.00 | 0.00 | 90 | 1014.0 |
| 20260504025003 | 18 | 203 | 4.8 | 11.3 | 0.00 | 0.00 | 0.00 | 90 | 1014.1 |
| 20260504024503 | 18 | 201 | 4.8 | 11.3 | 0.00 | 0.00 | 0.00 | 90 | 1014.1 |
| 20260504024214 | 18 | 201 | 4.8 | 11.3 | 0.00 | 0.00 | 0.00 | 90 | 1014.0 |
| 20260504023503 | 18 | 210 | 3.2 | 9.7 | 0.00 | 0.00 | 0.00 | 90 | 1014.0 |
| 20260504023003 | 18 | 203 | 3.2 | 12.9 | 0.00 | 0.00 | 0.00 | 90 | 1013.9 |
| 20260504022504 | 18 | 194 | 4.8 | 12.9 | 0.00 | 0.00 | 0.00 | 90 | 1014.0 |
| 20260504022003 | 18 | 194 | 4.8 | 12.9 | 0.00 | 0.00 | 0.00 | 90 | 1013.9 |
| 20260504021503 | 18 | 196 | 4.8 | 12.9 | 0.00 | 0.00 | 0.00 | 90 | 1014.1 |
| 20260504021003 | 18 | 196 | 4.8 | 11.3 | 0.00 | 0.00 | 0.00 | 90 | 1014.0 |
| 20260504020506 | 18 | 197 | 3.2 | 11.3 | 0.00 | 0.00 | 0.00 | 90 | 1013.9 |
| 20260504020003 | 18 | 204 | 3.2 | 11.3 | 0.00 | 0.00 | 0.00 | 89 | 1013.8 |
| 20260504015503 | 18 | 205 | 3.2 | 9.7 | 0.00 | 0.00 | 0.00 | 90 | 1013.9 |
| 20260504015003 | 18 | 194 | 3.2 | 12.9 | 0.00 | 0.00 | 0.00 | 90 | 1013.9 |
| 20260504014503 | 18 | 202 | 3.2 | 12.9 | 0.00 | 0.00 | 0.00 | 90 | 1014.2 |
| 20260504014004 | 18 | 210 | 3.2 | 9.7 | 0.00 | 0.00 | 0.00 | 90 | 1014.0 |
| 20260504013503 | 18 | 210 | 3.2 | 12.9 | 0.00 | 0.00 | 0.00 | 90 | 1014.0 |
| 20260504013216 | 18 | 209 | 4.8 | 12.9 | 0.00 | 0.00 | 0.00 | 90 | 1014.3 |
| 20260504012503 | 18 | 206 | 4.8 | 12.9 | 0.00 | 0.00 | 0.00 | 90 | 1014.2 |
| 20260504012004 | 18 | 189 | 4.8 | 12.9 | 0.00 | 0.00 | 0.00 | 90 | 1014.3 |
| 20260504011503 | 18 | 190 | 6.4 | 16.1 | 0.00 | 0.00 | 0.00 | 90 | 1014.4 |
| 20260504011003 | 18 | 205 | 4.8 | 16.1 | 0.00 | 0.00 | 0.00 | 90 | 1014.3 |
| 20260504010504 | 18 | 205 | 4.8 | 12.9 | 0.00 | 0.00 | 0.00 | 90 | 1014.4 |
| 20260504010214 | 18 | 207 | 4.8 | 12.9 | 0.00 | 0.00 | 0.00 | 90 | 1014.5 |
| 20260504005717 | 18 | 203 | 4.8 | 12.9 | 0.00 | 0.00 | 0.00 | 90 | 1014.5 |
| 20260504005004 | 18 | 201 | 3.2 | 12.9 | 0.00 | 0.00 | 0.00 | 90 | 1014.6 |
| 20260504004712 | 18 | 201 | 3.2 | 12.9 | 0.00 | 0.00 | 0.00 | 90 | 1014.4 |
| 20260504004003 | 18 | 201 | 3.2 | 14.5 | 0.00 | 0.00 | 0.00 | 90 | 1014.4 |
| 20260504003503 | 18 | 204 | 3.2 | 11.3 | 0.00 | 0.00 | 0.00 | 90 | 1014.5 |
| 20260504003003 | 18 | 207 | 3.2 | 11.3 | 0.00 | 0.00 | 0.00 | 90 | 1014.5 |
| 20260504002503 | 18 | 201 | 4.8 | 11.3 | 0.00 | 0.00 | 0.00 | 90 | 1014.7 |
| 20260504002004 | 18 | 199 | 4.8 | 11.3 | 0.00 | 0.00 | 0.00 | 90 | 1014.6 |
| 20260504001503 | 18 | 206 | 4.8 | 11.3 | 0.00 | 0.00 | 0.00 | 90 | 1014.5 |
| 20260504001004 | 18 | 213 | 3.2 | 12.9 | 0.00 | 0.00 | 0.00 | 89 | 1014.6 |
| 20260504000504 | 18 | 212 | 3.2 | 12.9 | 0.00 | 0.00 | 0.00 | 89 | 1014.8 |
| 20260504000003 | 18 | 205 | 4.8 | 12.9 | 0.00 | 0.00 | 0.00 | 89 | 1014.7 |
| 20260503235504 | 18 | 205 | 4.8 | 12.9 | 0.00 | 0.00 | 0.00 | 89 | 1014.8 |
| 20260503235009 | 18 | 212 | 3.2 | 9.7 | 0.00 | 0.00 | 0.00 | 89 | 1014.7 |
| 20260503234503 | 18 | 211 | 3.2 | 11.3 | 0.00 | 0.00 | 0.00 | 88 | 1014.7 |
| 20260503234004 | 19 | 207 | 3.2 | 11.3 | 0.00 | 0.00 | 0.00 | 88 | 1014.8 |
| 20260503233714 | 19 | 202 | 3.2 | 11.3 | 0.00 | 0.00 | 0.00 | 88 | 1014.7 |
| 20260503233003 | 19 | 207 | 1.6 | 6.4 | 0.00 | 0.00 | 0.00 | 88 | 1014.5 |
| 20260503232503 | 18 | 204 | 1.6 | 9.7 | 0.00 | 0.00 | 0.00 | 87 | 1015.0 |
| 20260503232004 | 19 | 205 | 3.2 | 9.7 | 0.00 | 0.00 | 0.00 | 87 | 1014.8 |
| 20260503231503 | 19 | 211 | 3.2 | 9.7 | 0.00 | 0.00 | 0.00 | 87 | 1014.9 |
| 20260503231003 | 18 | 215 | 3.2 | 9.7 | 0.00 | 0.00 | 0.00 | 87 | 1014.9 |
| 20260503230717 | 18 | 213 | 3.2 | 6.4 | 0.00 | 0.00 | 0.00 | 87 | 1014.8 |
| 20260503230003 | 18 | 203 | 3.2 | 6.4 | 0.00 | 0.00 | 0.00 | 88 | 1015.0 |
| 20260503225503 | 18 | 205 | 1.6 | 6.4 | 0.00 | 0.00 | 0.00 | 88 | 1015.0 |
| 20260503225003 | 18 | 206 | 3.2 | 11.3 | 0.00 | 0.00 | 0.00 | 88 | 1014.9 |
| 20260503224503 | 18 | 198 | 3.2 | 11.3 | 0.00 | 0.00 | 0.00 | 88 | 1015.0 |
| 20260503224004 | 18 | 197 | 1.6 | 6.4 | 0.00 | 0.00 | 0.00 | 88 | 1015.1 |
| 20260503223715 | 18 | 206 | 1.6 | 6.4 | 0.00 | 0.00 | 0.00 | 88 | 1014.9 |
| 20260503223004 | 19 | 215 | 3.2 | 6.4 | 0.00 | 0.00 | 0.00 | 88 | 1015.1 |
| 20260503222504 | 18 | 214 | 1.6 | 6.4 | 0.00 | 0.00 | 0.00 | 88 | 1015.0 |
| 20260503222004 | 19 | 220 | 1.6 | 6.4 | 0.00 | 0.00 | 0.00 | 88 | 1015.0 |
| 20260503221504 | 18 | 214 | 3.2 | 6.4 | 0.00 | 0.00 | 0.00 | 88 | 1015.0 |
| 20260503221003 | 18 | 214 | 3.2 | 6.4 | 0.00 | 0.00 | 0.00 | 88 | 1015.1 |
| 20260503220503 | 18 | 223 | 1.6 | 4.8 | 0.00 | 0.00 | 0.00 | 88 | 1014.8 |
| 20260503220007 | 18 | 218 | 1.6 | 11.3 | 0.00 | 0.00 | 0.00 | 88 | 1014.9 |
| 20260503215503 | 18 | 210 | 3.2 | 11.3 | 0.00 | 0.00 | 0.00 | 88 | 1015.1 |
| 20260503215005 | 18 | 207 | 3.2 | 9.7 | 0.00 | 0.00 | 0.00 | 88 | 1015.0 |
| 20260503214503 | 18 | 211 | 3.2 | 11.3 | 0.00 | 0.00 | 0.00 | 88 | 1015.0 |
| 20260503214003 | 18 | 213 | 3.2 | 11.3 | 0.00 | 0.00 | 0.00 | 88 | 1014.9 |
| 20260503213504 | 18 | 209 | 3.2 | 9.7 | 0.00 | 0.00 | 0.00 | 88 | 1015.2 |
| 20260503213004 | 19 | 206 | 4.8 | 11.3 | 0.00 | 0.00 | 0.00 | 88 | 1015.2 |
| 20260503212716 | 19 | 209 | 4.8 | 11.3 | 0.00 | 0.00 | 0.00 | 88 | 1015.2 |
| 20260503212214 | 19 | 210 | 4.8 | 11.3 | 0.00 | 0.00 | 0.00 | 88 | 1015.2 |
| 20260503211511 | 19 | 201 | 3.2 | 12.9 | 0.00 | 0.00 | 0.00 | 87 | 1015.3 |
| 20260503211003 | 19 | 202 | 3.2 | 11.3 | 0.00 | 0.00 | 0.00 | 87 | 1015.2 |
| 20260503210509 | 19 | 213 | 3.2 | 9.7 | 0.00 | 0.00 | 0.00 | 87 | 1015.2 |
| 20260503210003 | 19 | 215 | 3.2 | 9.7 | 0.00 | 0.00 | 0.00 | 87 | 1015.2 |
| 20260503205503 | 19 | 210 | 3.2 | 12.9 | 0.00 | 0.00 | 0.00 | 87 | 1015.1 |
| 20260503205003 | 19 | 209 | 1.6 | 12.9 | 0.00 | 0.00 | 0.00 | 86 | 1015.0 |
| 20260503204503 | 19 | 221 | 1.6 | 9.7 | 0.00 | 0.00 | 0.00 | 86 | 1015.0 |
| 20260503204218 | 19 | 225 | 1.6 | 9.7 | 0.00 | 0.00 | 0.00 | 86 | 1015.0 |
| 20260503203503 | 19 | 215 | 3.2 | 9.7 | 0.00 | 0.00 | 0.00 | 87 | 1014.9 |
| 20260503203003 | 19 | 218 | 3.2 | 9.7 | 0.00 | 0.00 | 0.00 | 86 | 1015.0 |
| 20260503202717 | 19 | 216 | 1.6 | 9.7 | 0.00 | 0.00 | 0.00 | 86 | 1014.9 |
| 20260503202003 | 19 | 212 | 3.2 | 6.4 | 0.00 | 0.00 | 0.00 | 86 | 1014.8 |
| 20260503201504 | 19 | 201 | 3.2 | 9.7 | 0.00 | 0.00 | 0.00 | 86 | 1014.9 |
| 20260503201216 | 19 | 198 | 1.6 | 9.7 | 0.00 | 0.00 | 0.00 | 86 | 1014.8 |
| 20260503200714 | 19 | 216 | 1.6 | 6.4 | 0.00 | 0.00 | 0.00 | 85 | 1014.8 |
| 20260503200217 | 19 | 220 | 1.6 | 6.4 | 0.00 | 0.00 | 0.00 | 85 | 1014.8 |
| 20260503195503 | 19 | 217 | 1.6 | 3.2 | 0.00 | 0.00 | 0.00 | 85 | 1014.6 |
| 20260503195003 | 19 | 207 | 1.6 | 6.4 | 0.00 | 0.00 | 0.00 | 85 | 1014.6 |
| 20260503194504 | 20 | 206 | 3.2 | 6.4 | 0.00 | 0.00 | 0.00 | 85 | 1014.4 |
| 20260503194004 | 19 | 212 | 1.6 | 9.7 | 0.00 | 0.00 | 0.00 | 85 | 1014.3 |
| 20260503193503 | 19 | 212 | 1.6 | 9.7 | 0.00 | 0.00 | 0.00 | 85 | 1014.5 |
| 20260503193003 | 19 | 216 | 1.6 | 9.7 | 0.00 | 0.00 | 0.00 | 85 | 1014.2 |
| 20260503192504 | 19 | 220 | 1.6 | 9.7 | 0.00 | 0.00 | 0.00 | 85 | 1014.3 |
| 20260503192003 | 19 | 217 | 3.2 | 6.4 | 0.00 | 0.00 | 0.00 | 85 | 1014.2 |
| 20260503191713 | 19 | 216 | 3.2 | 6.4 | 0.00 | 0.00 | 0.00 | 85 | 1014.0 |
| 20260503191216 | 20 | 220 | 1.6 | 6.4 | 0.00 | 0.00 | 0.00 | 85 | 1013.7 |
| 20260503190503 | 20 | 223 | 1.6 | 6.4 | 0.00 | 0.00 | 0.00 | 85 | 1013.5 |
| 20260503190003 | 19 | 212 | 3.2 | 9.7 | 0.00 | 0.00 | 0.00 | 86 | 1013.6 |
| 20260503185503 | 19 | 209 | 3.2 | 9.7 | 0.00 | 0.00 | 0.00 | 86 | 1013.6 |
| 20260503185003 | 20 | 215 | 3.2 | 9.7 | 0.00 | 0.00 | 0.00 | 86 | 1013.3 |
| 20260503184505 | 19 | 212 | 3.2 | 14.5 | 0.00 | 0.00 | 0.00 | 86 | 1013.4 |
| 20260503184214 | 19 | 203 | 4.8 | 14.5 | 0.00 | 0.00 | 0.00 | 86 | 1013.3 |
| 20260503183503 | 20 | 191 | 3.2 | 11.3 | 0.00 | 0.00 | 0.00 | 85 | 1013.1 |
| 20260503183003 | 20 | 204 | 1.6 | 9.7 | 0.00 | 0.00 | 0.00 | 85 | 1013.1 |
| 20260503182504 | 20 | 196 | 3.2 | 6.4 | 0.00 | 0.00 | 0.00 | 85 | 1013.1 |
| 20260503182006 | 20 | 202 | 3.2 | 11.3 | 0.00 | 0.00 | 0.00 | 85 | 1013.2 |
| 20260503181504 | 20 | 199 | 4.8 | 12.9 | 0.00 | 0.00 | 0.00 | 85 | 1012.9 |
| 20260503181003 | 20 | 196 | 3.2 | 12.9 | 0.00 | 0.00 | 0.00 | 84 | 1013.0 |
| 20260503180715 | 20 | 198 | 1.6 | 12.9 | 0.00 | 0.00 | 0.00 | 84 | 1013.0 |
| 20260503180004 | 20 | 207 | 3.2 | 11.3 | 0.00 | 0.00 | 0.00 | 84 | 1012.8 |
| 20260503175503 | 20 | 209 | 3.2 | 11.3 | 0.00 | 0.00 | 0.00 | 84 | 1012.9 |
| 20260503175004 | 20 | 222 | 3.2 | 6.4 | 0.00 | 0.00 | 0.00 | 83 | 1012.6 |
| 20260503174503 | 20 | 221 | 1.6 | 9.7 | 0.00 | 0.00 | 0.00 | 83 | 1012.7 |
| 20260503174215 | 20 | 213 | 3.2 | 11.3 | 0.00 | 0.00 | 0.00 | 83 | 1012.7 |
| 20260503173503 | 20 | 204 | 3.2 | 12.9 | 0.00 | 0.00 | 0.00 | 83 | 1012.7 |
| 20260503173216 | 20 | 207 | 3.2 | 12.9 | 0.00 | 0.00 | 0.00 | 83 | 1012.7 |
| 20260503172504 | 20 | 200 | 4.8 | 11.3 | 0.00 | 0.00 | 0.00 | 82 | 1012.5 |
| 20260503172003 | 20 | 202 | 6.4 | 14.5 | 0.00 | 0.00 | 0.00 | 82 | 1012.6 |
| 20260503171715 | 20 | 207 | 6.4 | 14.5 | 0.00 | 0.00 | 0.00 | 82 | 1012.4 |
| 20260503171003 | 20 | 195 | 8.0 | 17.7 | 0.00 | 0.00 | 0.00 | 82 | 1012.3 |
| 20260503170503 | 21 | 192 | 8.0 | 17.7 | 0.00 | 0.00 | 0.00 | 81 | 1012.5 |
| 20260503151003 | 22 | 216 | 4.8 | 11.3 | 0.00 | 0.00 | 0.00 | 72 | 1013.3 |
| 20260503150503 | 22 | 218 | 4.8 | 12.9 | 0.00 | 0.00 | 0.00 | 71 | 1013.3 |
| 20260503131003 | 23 | 195 | 6.4 | 14.5 | 0.00 | 0.00 | 0.00 | 66 | 1014.2 |
| 20260503130504 | 23 | 201 | 4.8 | 14.5 | 0.00 | 0.00 | 0.00 | 66 | 1014.2 |
| 20260503130216 | 23 | 195 | 4.8 | 16.1 | 0.00 | 0.00 | 0.00 | 66 | 1014.3 |
| 20260503110505 | 21 | 307 | 4.8 | 11.3 | 0.00 | 0.00 | 0.00 | 74 | 1015.8 |